Regional Weather Roundup
Issued by NWS

Home | Current Version | Previous Version | Text Only | Print | Product List | Glossary Off
Versions: 1 2 3 4 5 6 7 8 9 10 11 12 13 14 15 16 17 18 19 20 21 22 23 24 25 26 27 28 29 30 31 32 33 34 35 36 37 38 39 40 41 42 43 44 45 46 47 48 49 50

000
ASUS43 KMPX 300401
RWRMN
WEATHER ROUNDUP FOR MINNESOTA
NATIONAL WEATHER SERVICE TWIN CITIES/CHANHASSEN MN
1100 PM CDT WED JUL 29 2015


NOTE: "FAIR" INDICATES FEW OR NO CLOUDS BELOW 12,000 FEET WITH NO
SIGNIFICANT WEATHER AND/OR OBSTRUCTIONS TO VISIBILITY. N/A MEANS
CURRENT SKY AND/OR WEATHER CONDITIONS ARE NOT AVAILABLE.

MNZ060>063-068>070-300500-
   Twin Cities Metro

CITY           SKY/WX    TMP DP  RH WIND       PRES   REMARKS
TWIN CITIES    CLEAR     73  56  54 W7        29.98R
ST PAUL        CLEAR     72  57  59 W8        29.98R
CRYSTAL        CLEAR     72  57  59 W8        29.97R
BLAINE         CLEAR     73  55  53 W9        29.97R
LAKEVILLE      CLEAR     66  55  68 SW7       30.00S
EDEN PRAIRIE   CLEAR     70  55  59 W8        29.98R
SOUTH ST PAUL  CLEAR     72  55  54 W7        29.98R
LAKE ELMO      FAIR      70  57  64 W8        29.99R
$$
MNZ001>005-007-008-013>017-022>024-027-028-300500-
   Northwest Minnesota

CITY           SKY/WX    TMP DP  RH WIND       PRES   REMARKS
BEMIDJI        PTCLDY    66  55  67 W9        29.91R
HALLOCK        CLEAR     63  59  88 W8        29.87S
ROSEAU         CLEAR     66  55  68 W8G16     29.85S
WARROAD        CLEAR     64  57  77 W8        29.84R
THIEF RVR FALL CLEAR     64  57  77 W6        29.90S
CROOKSTON      CLEAR     64  57  77 W8        29.92R
FOSSTON        CLEAR     61  55  82 CALM      29.93R
DETROIT LAKES  CLEAR     70  55  60 W8        29.97S
MOORHEAD       CLEAR     66  57  72 SW8       29.97R
PARK RAPIDS    PTCLDY    69  55  60 W12       29.94R
MAHNOMEN       FAIR      65  58  78 W7        29.94R
$$
MNZ006-009>011-018-025>026-300500-
   North Central Minnesota

CITY           SKY/WX    TMP DP  RH WIND       PRES   REMARKS
BAUDETTE       PTCLDY    64  53  67 W9        29.82R
FLAG ISLAND    MOCLDY    68  59  73 NW20G25   29.80R
INTL FALLS     MOCLDY    64  55  72 W7        29.79S
WASKISH        PTCLDY    70  55  60 W15G21    29.86S
BIG FORK       CLEAR     61  52  72 SW5       29.86R
LONGVILLE      PTCLDY    68  54  60 W6        29.91R
GRAND RAPIDS   PTCLDY    70  52  52 W8        29.89R
CRANE LAKE     PTCLDY    64  54  68 W6        29.80S
ORR            PTCLDY    63  52  67 CALM      29.80S
COOK           PTCLDY    63  54  72 SW5       29.83S
WALKER         FAIR      67  55  66 W7        29.91R
$$
MNZ012-019>021-037-300500-
   Northeast Minnesota

CITY           SKY/WX    TMP DP  RH WIND       PRES   REMARKS
DULUTH         PTCLDY    65  53  65 W12       29.86R
ELY            MOCLDY    66  52  59 W13G21    29.81R
HIBBING        PTCLDY    66  52  60 W8        29.85R
EVELETH        PTCLDY    64  50  59 W6        29.86R
DULUTH HARBOR  CLEAR     70  57  64 SW12      29.85R
TWO HARBORS    CLEAR     70  57  64 W7        29.81R
SILVER BAY     MOCLDY    70  52  52 CALM      29.79R
GRAND MARAIS     N/A     59  52  77 W7        29.71F
G MARAIS ARPRT   N/A     63  54  72 W12G21    29.75F
$$
MNZ029>031-032-039>041-046>048-054>057-064-300500-
   West Central Minnesota

CITY           SKY/WX    TMP DP  RH WIND       PRES   REMARKS
FERGUS FALLS   CLEAR     63  55  77 W6        29.98S
WHEATON        CLEAR     64  55  72 W9        30.03S
MORRIS         CLEAR     66  57  72 W8        30.01S
ALEXANDRIA     CLEAR     69  56  62 W10       30.01S
ELBOW LAKE     FAIR      65  56  71 W9        30.00S
WADENA         CLEAR     66  55  68 W8        29.96S
GLENWOOD       FAIR      66  55  68 W8        30.02S
APPLETON       CLEAR     64  55  72 W8        30.03R
BENSON         CLEAR     64  55  72 W9        30.02S
ORTONVILLE     CLEAR     70  54  56 W8        30.04S
MADISON        CLEAR     64  55  72 W8        30.04S
WILLMAR        FAIR      66  57  72 W7        30.03S
$$
MNZ033>034-036-042>043-049>051-058-059-300500-
   Central Minnesota

CITY           SKY/WX    TMP DP  RH WIND       PRES   REMARKS
ST CLOUD       CLEAR     69  55  60 W9        29.97R
SAUK CENTRE    FAIR      64  56  76 W8        30.00R
PAYNESVILLE    CLEAR     60  55  83 SW8       30.01R
AITKIN         CLEAR     70  54  56 SW9       29.91R
PINE RIVER     PTCLDY    66  55  68 W3        29.96S
BRAINERD       PTCLDY    70  55  59 W13       29.94R
STAPLES        PTCLDY    66  54  63 W8        29.96R
LONG PRAIRIE   FAIR      66  55  68 SW6       30.00R
LITTLE FALLS   CLEAR     68  54  60 W5        29.97R
LITCHFIELD     CLEAR     70  57  64 W5        30.02R
BUFFALO        CLEAR     69  57  65 W6        30.00R
MAPLE LAKE     CLEAR     70  59  68 W5        30.00R
$$
MNZ037-044-045-052-053-300500-
   East Central Minnesota

CITY           SKY/WX    TMP DP  RH WIND       PRES   REMARKS
PRINCETON      PTCLDY    68  57  68 CALM      29.97R
MORA           CLEAR     64  52  63 W6        29.96R
CAMBRIDGE      CLEAR     72  55  56 SW6       29.94S
RUSH CITY      PTCLDY    67  55  63 SW6       29.95R
MOOSE LAKE     PTCLDY    66  52  59 W7        29.89R
HINCKLEY       FAIR      64  54  68 W8        29.93R
CLOQUET        CLEAR     66  52  59 SW9       29.88R
MCGREGOR       CLEAR     68  54  60 SW5       29.91R
$$
MNZ071>073-080-081-089-090-097-098-300500-
   Southwest Minnesota

CITY           SKY/WX    TMP DP  RH WIND       PRES   REMARKS
MONTEVIDEO     CLEAR     64  50  59 NW5       30.05S
GRANITE FALLS  CLEAR     63  57  81 W7        30.05S
CANBY          CLEAR     67  55  66 W9        30.07S
MARSHALL       CLEAR     64  54  68 W9        30.08R
REDWOOD FALLS  CLEAR     72  54  53 W10       30.03R
OLIVIA         CLEAR     59  52  77 W3        30.03S
PIPESTONE      CLEAR     64  57  77 SW3       30.11S
WINDOM         CLEAR     64  57  77 W8        30.09R
WORTHINGTON    CLEAR     64  55  72 W8        30.11R
JACKSON        CLEAR     64  59  82 SW6       30.10S
TRACY          CLEAR     66  57  72 W7        30.08R
SLAYTON        CLEAR     64  58  81 CALM      30.11S
$$
MNZ065>067-074>077-082>085-091>093-300500-
   South Central Minnesota

CITY           SKY/WX    TMP DP  RH WIND       PRES   REMARKS
MANKATO        CLEAR     68  54  60 W10       30.04R
NEW ULM        CLEAR     63  57  82 W6        30.04R
ST JAMES       CLEAR     66  61  82 SW6       30.07R
FAIRMONT       CLEAR     66  55  68 SW7       30.07S
GLENCOE        CLEAR     66  58  75 W6        30.01R
FARIBAULT      CLEAR     66  57  72 SW5       30.03R
OWATONNA       CLEAR     64  57  77 SW9       30.04S
WASECA         CLEAR     63  57  82 SW8       30.06R
ALBERT LEA     CLEAR     68  55  64 W5        30.06
$$
MNZ078>079-086>088-094>096-300500-
   Southeast Minnesota

CITY           SKY/WX    TMP DP  RH WIND       PRES   REMARKS
ROCHESTER      CLEAR     64  58  80 W8        30.05R
RED WING       CLEAR     72  54  53 W8        29.97R
STANTON        CLEAR     70  55  58 SW9       30.00R
DODGE CENTER   CLEAR     61  57  88 W7        30.04S
WINONA         CLEAR     73  55  53 W9        29.99S
AUSTIN         CLEAR     64  57  77 SW5       30.06R
PRESTON        CLEAR     66  56  71 W9        30.05S
$$
ABBREVIATIONS USED IN REMARKS
   TC - TEMPERATURES IN CELSIUS
  WCI - WIND CHILL INDEX
   HX - HEAT INDEX
  VSB - VISIBILITY
$$



USA.gov is the U.S. government's official web portal to all federal, state and local government web resources and services.